CAPE
0 0 0 0 0 0 0 0 0 0 0 0 0 0 0 0 0 0 0 0 0 0 0 0 0 0 0 0 0 0 0 0 0 0 0 0 0 0 0 0 0 0 0 1
1 0 0 0 0 1 2 0 0 0 0 0 0 0 0 0 0 0 0 0 0 0 0 0 0 0 0 20 0 0 0 0 0 0 0 0 0 0 0 0 0 11 12 9
0 0 0 0 0 1 0 0 0 0 0 0 0 0 0 0 0 0 0 0 0 0 0 0 0 3 28 32 22 0 0 0 0 0 0 0 0 0 0 0 0 0 0 0
2 0 1 0 0 0 0 0 0 0 0 0 0 0 0 0 0 0 0 0 0 0 0 0 0 0 1 4 27 0 0 0 0 0 0 0 0 0 1 1 0 3 33 28
1 1 1 0 0 0 0 0 0 0 0 0 0 0 0 0 0 0 0 0 0 0 0 0 0 0 0 4 23 7 5 0 0 0 0 0 0 0 1 0 0 0 0 29
2 1 0 0 0 0 0 0 0 0 0 0 0 0 0 0 0 3 17 83 38 0 0 0 5 0 8 3 26 15 15 14 0 0 0 0 0 0 0 0 4 4 0 1
3 2 1 0 0 1 1 0 0 0 0 0 0 0 0 0 0 0 15 139 119 113 47 13 8 13 12 4 27 22 48 33 0 0 0 0 0 1 1 1 0 0 0 0
3 2 2 1 0 0 2 0 0 0 0 0 0 0 0 0 0 13 55 120 53 19 25 36 21 1 69 61 28 14 11 6 3 0 0 0 0 14 0 1 0 154 5 3
2 1 2 1 0 0 2 0 0 4 1 0 0 0 0 0 0 0 77 73 139 534 0 3 44 36 44 52 11 0 7 0 8 0 0 0 0 16 112 17 37 302 20 13
0 2 3 1 0 0 3 0 0 10 4 0 0 0 0 0 0 0 50 35 264 521 167 54 123 65 0 0 0 0 1 6 10 35 0 0 161 91 240 37 447 781 312 26
1 3 4 2 0 7 9 0 0 14 7 0 0 0 0 0 0 0 0 41 45 169 276 111 26 48 0 0 0 0 0 10 14 104 0 0 147 237 214 643 968 1075 640 655
0 4 4 2 1 7 26 0 0 2 3 0 0 0 0 0 0 0 0 0 0 12 37 12 1 0 0 0 0 0 50 5 27 109 128 24 144 383 442 851 989 633 344 92
0 2 4 2 2 5 23 4 0 1 7 0 0 0 0 0 0 0 0 0 0 4 2 9 0 0 0 0 0 0 3 33 90 121 79 15 171 135 133 312 370 153 116 0
0 5 3 2 2 4 12 14 6 4 5 1 0 0 0 0 0 0 0 0 0 0 0 0 0 0 0 0 0 0 1 6 4 57 92 7 13 64 71 7 27 219 261 443
0 0 3 3 0 0 9 8 5 0 0 0 0 0 0 0 0 0 0 0 0 0 0 0 0 44 0 4 5 0 0 2 7 13 0 2 30 129 135 237 426 97 995 2041
0 7 3 2 0 14 3 2 0 0 0 1 0 0 0 0 0 0 0 0 0 0 0 0 0 97 167 98 24 40 0 0 0 0 0 0 0 0 7 174 240 460 1415 2051
5 4 2 0 0 12 4 1 0 0 0 1 2 0 0 0 0 0 0 0 0 0 0 0 0 0 52 0 3 0 25 1 0 26 23 0 0 0 15 11 226 410 1445 1624
3 0 0 0 3 0 1 0 0 0 0 1 2 0 0 0 0 0 0 0 0 0 0 0 0 0 11 54 109 16 0 0 0 4 105 32 2 89 37 501 222 550 844 753
0 0 0 4 7 1 0 0 0 0 0 1 2 0 0 0 0 0 4 0 0 0 0 0 0 0 2 122 158 191 17 18 5 4 1 60 92 1 121 882 860 806 458 288
0 0 1 10 2 0 0 0 1 1 1 1 1 0 0 0 0 8 26 16 5 0 0 0 0 0 0 32 157 100 38 5 0 0 53 197 83 0 81 620 830 521 308 418
2 5 2 1 0 0 2 2 1 1 2 0 0 0 0 0 0 7 17 25 12 2 0 0 0 0 0 0 0 50 30 1 150 178 134 61 50 0 24 211 95 79 27 1
0 1 0 0 1 1 1 1 0 0 0 0 0 1 0 0 0 6 5 20 42 17 3 2 0 52 622 143 60 163 13 49 49 200 194 465 360 89 13 0 0 0 0 0
1 2 0 1 1 0 2 5 4 1 0 4 34 19 49 10 29 5 1 3 0 0 45 60 159 299 280 283 106 90 4 0 262 863 606 242 191 74 47 13 44 75 0 0
1 7 0 0 0 0 0 0 0 0 3 12 2 1 18 34 35 2 0 0 0 0 1 44 230 308 290 262 226 159 18 211 761 872 850 565 274 106 480 595 287 9 33 134
1 7 1 0 0 0 0 0 3 12 5 0 0 0 13 12 34 51 11 2 0 2 1 93 8 29 0 1 463 635 721 700 786 773 829 852 775 748 648 526 407 260 173 69
1 5 1 2 3 18 32 24 25 0 1 0 0 0 14 11 38 26 6 0 0 0 27 82 140 54 0 29 710 859 778 643 576 500 393 428 365 375 269 106 52 12 0 0
1 1 0 0 0 3 9 6 0 2 0 0 2 4 1 10 27 19 16 0 18 0 0 0 5 84 220 666 605 559 510 452 394 274 142 61 13 1 0 0 0 0 0 0
CIN
0 0 0 0 0 0 0 0 0 0 0 0 0 0 0 0 0 0 0 0 0 0 0 0 0 0 0 0 0 0 0 0 0 0 0 0 0 0 0 0 0 -1 -2 -68
-1 0 0 0 0 -2 0 0 0 0 0 0 0 0 0 0 0 0 0 0 0 0 0 0 0 0 0 -78 0 0 0 0 0 0 0 0 0 0 0 0 0 -58 -32 -38
0 0 0 0 0 0 0 0 0 0 0 0 0 0 0 0 0 0 0 0 0 0 0 0 0 -80 -68 -106 -66 0 0 0 0 0 0 0 0 0 0 0 0 0 0 0
0 -1 0 0 0 0 0 0 0 0 0 0 0 0 0 0 0 0 0 0 0 0 0 0 0 0 -28 -57 -119 0 0 0 0 0 0 0 0 0 -39 -27 0 -54 -36 -79
-1 0 0 0 0 0 0 0 0 0 0 0 0 0 0 0 0 0 -3 -3 -3 0 0 0 0 0 0 -64 -145 -109 -96 0 0 0 0 0 0 0 -48 0 0 0 -1 -64
-3 -1 0 0 0 0 0 0 0 0 0 0 0 0 0 0 0 -31 -122 -92 -89 0 0 0 -70 -3 -156 -92 -159 -149 -125 -86 -6 0 0 0 0 0 0 0 -83 -92 0 -21
-4 -1 0 0 0 0 -1 -1 0 0 0 0 0 0 0 0 0 0 -136 -80 -93 -100 -131 -95 -53 -53 -133 -94 -178 -244 -123 -106 -11 0 0 0 0 -20 -66 -32 0 0 0 0
-11 -6 -2 -2 -3 0 -1 0 0 0 0 0 0 0 0 0 0 -150 -148 -110 -196 -208 -84 -32 -34 -10 -62 -104 -219 -221 -182 -125 -14 0 0 0 0 -75 0 -26 0 -129 -110 -179
-15 -13 -5 -1 0 0 0 0 -1 -3 0 0 0 0 0 0 0 0 -205 -191 -178 -90 0 -31 -45 -24 -124 -73 -106 0 -195 -8 -114 0 0 0 0 -92 -207 -156 -60 -311 -192 -153
-3 -14 -5 -1 0 0 0 0 0 -7 -1 0 0 0 0 0 0 0 -265 -261 -121 -163 -113 -92 -57 -43 0 0 0 0 -86 -118 -77 -79 0 0 -190 -166 -180 -42 -44 -323 -312 -273
-15 -16 -5 -1 0 0 0 0 0 -1 -2 0 0 0 0 0 0 0 0 -177 -188 -129 -89 -111 -144 -96 0 0 0 0 -16 -96 -100 -138 0 0 -395 -291 -43 -129 -334 -285 -313 -322
-5 -15 -9 -2 -1 -1 0 0 -7 -36 -2 0 0 0 0 0 0 0 0 0 0 -38 -176 -233 -23 0 0 0 0 0 -134 -17 -127 -183 -211 -402 -550 -388 -487 -303 -195 -146 -126 -296
-5 -16 -13 -6 -3 -8 0 -2 0 -24 -10 0 0 0 0 0 0 0 0 0 0 -18 -186 -149 0 0 0 0 0 0 -45 -348 -166 -187 -232 -318 -383 -513 -509 -406 -322 -402 -365 0
0 -19 -12 -11 -5 -9 -2 -3 -11 -20 -9 0 0 0 0 0 0 0 0 0 0 0 0 0 0 0 0 0 0 0 -23 -278 -209 -135 -191 -337 -324 -370 -371 -499 -523 -413 -337 -245
0 -11 -14 -11 0 0 -8 -9 -20 -5 -4 -1 0 0 0 0 0 0 0 0 0 0 0 0 0 -157 0 -176 -116 -1 0 -95 -162 -70 0 -51 -246 -225 -319 -291 -240 -302 -212 -115
-6 -12 -14 -12 0 -5 -11 -7 0 0 0 -13 0 0 0 0 0 0 0 0 0 0 0 0 0 -51 -48 -42 -80 -86 0 -9 -8 0 0 0 0 0 -425 -270 -230 -217 -148 -122
-13 -14 -13 0 -1 -1 0 -1 0 0 0 0 0 0 0 0 0 0 0 0 0 0 0 0 0 0 -59 0 -11 0 -107 -36 0 -207 -224 0 0 0 -173 -249 -261 -248 -115 -97
-14 -4 0 0 -12 -6 0 0 0 0 0 0 0 0 0 0 -6 0 0 0 0 0 0 0 0 0 -30 -19 -57 -220 0 0 0 -285 -151 -291 -253 -246 -203 -112 -137 -127 -142 -145
0 0 0 -11 -4 -9 -3 0 0 0 0 -2 0 0 0 0 0 0 -11 0 0 0 0 0 0 0 -4 -36 -34 -79 -138 -160 -181 -222 -28 -292 -216 -52 -179 -119 -163 -174 -219 -216
0 0 -5 -1 -5 0 0 0 0 0 0 0 0 0 0 0 0 -49 -30 -27 -19 0 0 0 0 0 0 -55 -85 -75 -105 -179 0 0 -166 -164 -169 0 -174 -134 -137 -187 -265 -279
0 -5 -1 0 0 0 0 -3 -11 0 0 -1 0 0 0 0 0 -73 -56 -24 -10 -9 0 0 0 0 0 0 0 -80 -133 -64 -116 -72 -87 -140 -142 0 -208 -208 -315 -351 -274 -69
0 -1 0 0 0 0 -3 0 0 -6 -1 0 0 -21 0 0 0 -51 -58 -23 -19 -6 -109 -15 0 -21 -75 -72 -64 -54 -101 -99 -141 -160 -92 -89 -57 -199 -302 0 0 0 0 0
0 0 0 0 0 0 -1 0 -5 -1 0 -3 -17 -19 -10 -30 -33 -45 -58 -19 0 0 -36 -18 -40 -87 -133 -121 -179 -133 -21 0 -123 -88 -131 -208 -234 -319 -278 -295 -357 -259 0 0
0 0 -1 -2 0 0 0 0 0 -3 -17 -16 -32 -36 -27 -23 -21 -54 0 0 0 0 -28 -14 -80 -123 -126 -145 -152 -136 -12 -110 -99 -124 -144 -181 -251 -321 -290 -287 -337 -36 -347 -350
-2 -1 -1 0 0 0 0 0 -15 -18 -36 0 0 0 -49 -40 -14 -23 -29 -16 0 -3 -12 -69 -197 -128 0 -16 -53 -79 -95 -106 -118 -119 -131 -163 -191 -181 -207 -258 -267 -289 -313 -304
-1 -7 -5 -19 -5 -5 -6 -10 -9 -29 -20 -4 -13 0 -21 -20 -14 -9 -20 0 0 0 -97 -195 -197 -197 -41 -133 -58 -68 -99 -112 -129 -158 -191 -192 -201 -199 -229 -257 -276 -105 0 0
-13 -5 0 -22 -13 -18 -10 -30 -20 -46 0 -2 -22 -13 -13 -28 -10 -10 -33 0 -45 -1 0 0 -189 -144 -63 -29 -58 -83 -113 -136 -151 -163 -172 -175 -223 -21 0 0 0 0 0 0
Wind_Speed
31 31 31 31 31 31 21 18 13 7 9 9 12 14 13 17 27 29 26 23 22 25 24 26 26 21 28 23 6 9 11 22 34 35 26 27 30 28 22 26 26 23 25 28
30 30 29 29 27 25 21 19 15 14 3 12 13 16 23 23 34 31 20 27 31 26 25 28 24 26 21 17 23 23 22 27 38 36 28 20 23 23 26 26 23 24 25 26
29 28 27 27 25 23 19 16 13 15 9 16 17 21 28 23 22 28 26 32 34 29 29 25 25 25 21 23 21 26 18 18 25 35 30 26 27 28 21 18 22 31 24 25
28 27 26 26 24 23 18 12 13 16 13 12 20 20 19 30 30 20 29 30 26 31 32 29 24 24 26 23 21 18 21 20 22 29 26 25 29 26 32 26 24 21 18 5
27 26 25 24 24 23 14 13 14 18 18 15 16 14 16 21 24 21 24 27 32 27 31 30 28 24 23 23 25 24 22 24 25 33 28 27 33 33 35 32 34 32 19 7
27 26 24 22 22 20 15 17 18 15 16 17 16 15 24 26 24 13 21 29 30 24 26 24 24 24 27 25 26 25 24 24 26 31 32 34 38 32 30 32 30 17 16 13
26 24 22 20 19 18 17 16 17 16 16 17 17 25 25 26 25 21 23 24 22 18 21 19 21 23 28 25 22 22 26 25 22 31 28 35 31 25 21 16 25 24 30 11
26 24 21 18 18 17 16 17 17 16 17 21 23 27 25 27 26 21 21 23 26 27 20 20 23 26 26 25 22 21 18 22 26 28 27 28 31 25 22 23 30 31 28 13
26 25 21 16 17 16 16 18 18 17 18 11 19 25 24 22 27 26 22 24 25 21 19 22 26 27 24 25 28 14 16 16 22 27 28 38 33 25 19 12 27 24 17 11
26 23 20 16 17 14 15 17 21 18 16 18 22 15 21 21 24 25 26 28 25 23 24 23 22 23 21 25 26 24 26 22 23 29 28 27 24 27 21 21 23 21 12 9
24 22 20 17 15 15 12 18 21 19 19 28 26 30 25 24 19 18 26 26 24 24 24 23 22 21 21 23 23 24 22 21 29 25 25 33 25 26 25 11 13 7 3 11
23 22 18 16 14 16 13 17 20 24 21 21 32 36 34 19 16 21 20 20 21 18 19 20 19 20 18 20 25 18 17 20 23 19 23 26 24 16 11 2 11 2 9 17
21 21 18 16 14 15 15 18 22 22 26 34 26 21 26 7 19 13 20 21 18 17 14 16 18 23 18 21 22 19 17 17 19 22 22 20 17 15 12 13 4 5 3 3
19 20 17 16 15 14 15 16 18 20 22 22 23 23 29 24 17 11 19 20 23 19 16 19 20 25 18 19 19 18 14 21 16 17 23 22 17 16 12 9 5 2 5 10
20 20 16 16 14 15 15 16 17 17 19 21 28 34 25 24 19 4 18 14 26 28 23 23 26 19 17 19 20 23 16 22 17 14 19 21 24 20 14 12 7 3 10 5
19 17 14 13 14 13 14 18 16 15 16 21 23 23 23 23 18 20 3 13 14 23 23 28 26 19 18 21 23 28 23 26 22 20 18 19 25 26 25 19 15 7 4 6
17 14 13 12 13 11 14 16 17 18 15 19 23 22 19 22 16 16 13 11 16 19 26 35 34 31 23 19 20 14 28 33 33 29 27 27 28 22 16 16 35 6 9 11
12 11 10 11 12 14 17 17 15 15 18 19 20 21 19 18 15 17 14 16 19 21 24 24 24 24 20 27 6 6 26 31 32 30 34 27 27 31 33 28 3 4 6 8
9 8 9 11 12 13 16 13 15 16 18 19 19 19 19 20 19 19 19 15 18 21 23 27 24 26 22 15 3 6 7 12 23 29 35 35 31 27 14 7 4 4 5 4
6 8 11 13 13 12 12 15 18 19 19 21 23 22 22 21 19 18 20 16 17 20 26 19 21 17 26 24 1 10 14 11 13 14 11 30 30 10 5 4 2 1 3 6
10 11 13 13 13 14 16 17 18 17 18 17 18 18 29 23 21 19 18 19 18 19 22 16 22 17 33 36 34 29 4 2 6 5 15 15 23 6 8 3 4 5 5 5
10 11 11 12 15 16 16 16 16 17 16 16 17 20 17 18 16 17 19 20 21 21 22 22 27 20 21 17 6 25 14 20 17 17 16 12 12 3 3 5 6 6 13 14
11 13 12 15 15 17 17 16 17 16 16 17 20 21 17 15 15 17 19 21 25 28 23 24 21 18 18 10 9 14 22 22 17 11 8 7 6 5 2 7 13 13 11 7
14 12 13 16 15 18 14 16 15 18 21 22 22 21 18 17 15 16 19 21 24 26 24 24 16 11 10 8 9 17 21 18 6 8 6 5 5 4 5 6 8 6 6 7
13 15 15 17 21 20 21 23 21 19 19 21 21 22 19 19 16 15 17 20 22 21 21 21 17 4 10 4 12 16 4 4 4 4 4 4 4 6 7 8 7 7 7 7
17 19 18 20 21 19 19 17 18 19 20 20 19 20 18 19 17 17 21 21 22 22 22 24 21 23 28 28 3 9 4 4 6 6 8 8 8 7 7 7 8 8 7 7
19 20 21 20 21 23 19 17 18 20 20 20 20 19 20 19 20 23 22 26 21 21 26 27 22 21 23 4 8 8 4 5 6 7 9 10 10 10 10 9 9 9 9 9
Wind_Direction
327 326 322 323 319 314 333 321 331 353 86 336 316 305 303 298 281 268 286 292 298 293 294 289 287 302 275 265 273 262 271 267 253 252 276 279 266 262 273 263 273 277 282 282
328 327 319 319 318 327 324 301 305 310 66 330 322 313 291 293 255 262 294 285 281 288 285 286 291 284 298 302 271 267 267 263 247 256 270 285 290 263 264 265 275 273 277 283
323 318 310 312 315 322 327 317 319 310 303 306 320 308 283 292 289 279 293 288 274 279 279 291 289 289 290 298 297 278 262 275 264 252 264 275 280 269 272 280 271 265 279 288
311 308 308 314 312 314 330 339 323 322 328 322 310 304 304 284 275 293 299 295 286 275 269 280 292 290 285 298 306 307 274 276 274 266 276 278 272 276 258 266 274 280 284 285
314 316 316 322 315 309 340 327 324 314 314 329 326 331 330 313 299 304 301 301 285 281 268 274 281 289 290 288 291 292 294 275 277 266 271 276 268 266 265 265 263 275 270 281
310 315 323 328 322 318 327 316 314 321 312 317 322 336 306 301 305 313 314 303 295 280 278 279 281 284 283 288 287 289 291 285 282 270 272 264 258 274 257 259 277 269 261 271
310 318 325 330 328 323 317 318 317 314 307 314 316 303 304 299 295 296 306 314 318 308 297 289 291 290 284 287 287 290 283 284 286 274 279 258 259 278 278 287 262 272 270 248
311 314 321 332 325 324 321 315 314 314 308 304 299 292 302 295 295 295 301 304 308 290 295 295 286 287 287 282 284 287 297 281 279 278 278 270 256 271 276 272 261 286 263 257
305 301 319 336 330 324 322 308 311 311 310 319 312 299 301 304 293 289 292 296 306 310 298 288 283 277 285 283 281 292 293 296 285 284 276 244 250 268 287 284 269 289 260 209
303 314 325 330 325 330 324 307 303 307 312 305 301 318 305 309 297 291 284 281 292 320 282 276 282 281 287 280 284 292 272 272 284 284 275 270 264 268 275 267 270 269 261 216
308 314 322 329 331 324 328 307 302 305 305 292 252 273 295 300 304 305 286 277 286 294 282 278 279 286 293 295 295 282 286 269 274 291 277 258 275 270 259 274 275 297 227 277
306 311 324 327 324 320 328 312 304 297 300 300 270 258 238 211 206 297 298 291 281 295 294 284 283 287 300 303 290 306 293 271 270 290 279 277 271 272 277 255 261 323 264 304
307 310 318 323 322 320 322 315 304 305 299 292 295 298 289 220 199 199 284 281 287 294 304 299 292 278 295 295 303 307 293 287 272 281 272 276 271 272 295 287 301 330 107 194
309 309 315 315 316 323 323 319 314 311 306 308 298 293 282 283 298 189 192 248 274 295 299 293 290 270 295 301 309 305 299 257 276 284 274 270 272 271 277 263 287 172 151 140
303 306 313 314 316 318 319 319 317 311 308 308 292 273 281 283 291 222 184 200 265 267 276 279 277 297 306 306 312 295 294 256 266 285 293 275 266 273 279 285 290 152 154 174
301 309 316 318 314 321 324 317 324 313 307 304 299 293 288 282 286 285 228 187 268 273 277 272 277 295 303 297 300 283 283 255 262 272 299 293 261 265 266 282 285 288 220 146
303 314 316 316 316 320 317 316 315 309 306 301 296 289 293 295 289 295 290 290 280 279 274 261 265 272 292 301 302 326 233 212 237 267 271 272 255 287 285 277 240 165 170 161
316 321 329 326 323 314 309 306 313 308 298 295 293 286 291 313 292 291 297 291 284 276 272 277 278 279 287 277 300 141 200 230 234 241 253 211 264 268 274 281 168 202 253 262
329 342 342 335 324 317 306 313 306 303 296 290 290 286 284 303 296 289 288 294 288 281 273 267 276 272 278 301 264 175 210 183 199 217 231 224 223 278 317 332 276 277 287 300
344 338 325 316 308 320 325 300 293 291 287 280 280 283 278 294 295 283 287 290 286 285 269 281 272 201 269 270 44 165 174 174 290 278 213 199 225 300 333 26 87 357 318 336
304 310 312 308 299 296 297 291 286 284 286 292 293 289 259 278 276 282 289 284 282 288 276 276 274 289 214 244 238 219 111 57 121 314 280 284 271 293 300 327 0 37 52 18
304 307 314 296 284 285 284 287 284 281 290 292 303 284 287 279 283 287 278 278 277 275 290 271 262 287 280 273 217 179 276 278 285 292 294 305 298 140 199 292 299 345 331 326
286 293 293 281 281 272 276 278 278 283 288 291 294 285 290 286 283 284 279 277 262 273 277 266 273 283 284 292 282 266 257 260 295 326 320 338 355 356 297 292 288 311 329 328
270 285 279 271 279 273 288 285 284 277 282 290 295 290 285 282 280 285 276 274 275 260 261 259 273 297 303 300 288 264 259 276 340 341 353 7 14 359 344 348 353 18 45 32
268 265 268 265 251 250 257 241 268 288 295 293 290 281 283 278 284 289 277 265 265 264 259 269 285 293 296 24 261 256 296 304 353 352 348 349 358 6 352 348 8 21 31 39
245 246 250 244 248 264 281 295 298 302 301 296 295 283 286 274 277 275 259 253 261 266 275 269 270 256 229 216 81 105 82 76 87 64 65 58 45 35 33 16 357 357 21 40
248 247 245 252 255 258 295 313 310 306 303 291 283 280 268 277 266 259 258 253 273 277 276 257 256 254 231 68 90 97 96 74 50 42 43 48 52 53 50 47 44 49 47 44